Preview of NWS' New Version of Forecast
This preview is not operational and should not be used for support decisions.

Regional Weather Roundup (RWR)

Issued by National Weather Service (NWS)

                            
000
ASUS43 KMKX 252011
RWRWI 

WISCONSIN REGIONAL WEATHER ROUNDUP
NATIONAL WEATHER SERVICE MILWAUKEE/SULLIVAN WI
300 PM CDT SUN AUG 25 2019

NOTE: "FAIR" INDICATES FEW OR NO CLOUDS BELOW 12,000 FEET WITH NO
SIGNIFICANT WEATHER AND/OR OBSTRUCTIONS TO VISIBILITY.

WIZ001-002-006>008-014>016-023>028-252100-
NORTHWEST WISCONSIN
  
CITY           SKY/WX    TMP DP  RH WIND       PRES   REMARKS
SUPERIOR ARPT  FAIR      72  52  49 S13G20    30.00F                  
ASHLAND        FAIR      75  53  46 S10G20    30.03F                  
HAYWARD        FAIR      70  53  54 S13G22    30.04F                  
SIREN          PTSUNNY   72  51  47 S15       30.02S                  
CUMBERLAND     PTSUNNY   68  50  52 S16       30.04F                  
RICE LAKE      NOT AVBL                                               
CHETEK         PTSUNNY   69  55  60 S14G20    30.05S                  
LADYSMITH      PTSUNNY   70  53  54 SE7       30.07F                  
EAU CLAIRE     PTSUNNY   70  53  54 S15G21    30.03F                  
MENOMONIE      FAIR      66  52  60 SE14      30.03F                  
NEW RICHMOND   CLOUDY    70  52  52 SE10G17   30.02S                  
OSCEOLA        CLOUDY    71  55  57 SE12      30.03F                  
$$
 
WIZ003>005-009-010-017-018-252100-
NORTH CENTRAL WISCONSIN
  
CITY           SKY/WX    TMP DP  RH WIND       PRES   REMARKS
MANITOWISH WTR PTSUNNY   69  55  60 S12       30.08F                  
ARBOR VITAE    FAIR      72  57  58 S9        30.09F                  
WOODRUFF       FAIR      72  57  58 S9        30.09F                  
RHINELANDER    FAIR      71  53  52 S14G21    30.10F                  
EAGLE RIVER    PTSUNNY   69  52  54 S8        30.09F                  
LAND O LAKES   PTSUNNY   72  53  52 SE12      30.12F                  
PHILLIPS       CLOUDY    69  53  57 S13G22    30.07F                  
TOMAHAWK       CLOUDY    70  55  59 SE5       30.09S                  
MEDFORD        FAIR      67  54  62 S12       30.08F                  
MERRILL        FAIR      73  56  55 SE9G18    30.09F                  
$$
 
WIZ029-030-035-036-043>047-252100-
CENTRAL WISCONSIN
  
CITY           SKY/WX    TMP DP  RH WIND       PRES   REMARKS
WAUSAU         FAIR      71  52  50 SE15G24   30.07F                  
MOSINEE        PTSUNNY   72  54  53 SE9       30.10F                  
MARSHFIELD     FAIR      72  54  53 S15G21    30.07F                  
STEVENS POINT  PTSUNNY   70  53  54 SE10      30.09F                  
WAUPACA        PTSUNNY   78  53  41 SE9G18    30.09F                  
WAUTOMA        PTSUNNY   75  56  51 SE7       30.07F                  
WISC RAPIDS    FAIR      72  53  51 S7G17     30.08F                  
CAMP DOUGLAS   PTSUNNY   70  59  68 E10       30.05F                  
$$
 
WIZ011>013-019>022-031-037>040-048>050-252100-
NORTHEAST WISCONSIN
  
CITY           SKY/WX    TMP DP  RH WIND       PRES   REMARKS
ANTIGO         FAIR      70  55  58 SE12G20   30.11F                  
SHAWANO        FAIR      75  55  49 SE13G18   30.10F                  
OCONTO         FAIR      71  55  57 SE10      30.12F                  
STURGEON BAY   FAIR      70  56  61 SE12      30.14F                  
GREEN BAY      PTSUNNY   73  55  53 SE14      30.11F                  
MANITOWOC      FAIR      70  59  68 E14       30.12F                  
APPLETON       PTSUNNY   73  54  49 SE10      30.09F                  
CLINTONVILLE   FAIR      75  53  46 SE10G17   30.09F                  
OSHKOSH        FAIR      74  55  51 SE14      30.08F                  
$$
 
WIZ032>034-041-042-053>061-252100-
SOUTHWEST WISCONSIN
  
CITY           SKY/WX    TMP DP  RH WIND       PRES   REMARKS
LA CROSSE      LGT RAIN  70  58  65 SE8       30.03F                  
SPARTA         LGT RAIN  65  59  82 E5        30.05F                  
VIROQUA        PTSUNNY   68  63  84 SE8       30.05F                  
BOSCOBEL       CLOUDY    73  58  59 VRB6      30.03F                  
PRAIRIE DU CHI CLOUDY    72  56  57 SE10G17   30.01F                  
PLATTEVILLE    CLOUDY    70  61  71 SE8       30.04F                  
$$

WIZ056-057-062-063-064-067-068-252100-
SOUTH CENTRAL WISCONSIN
  
CITY           SKY/WX    TMP DP  RH WIND       PRES   REMARKS
REEDSBURG      FAIR      72  56  58 SE6       30.04F                  
BARABOO/DELLS  CLOUDY    71  55  55 SE10      30.06F                  
LONE ROCK      CLOUDY    72  56  57 SE8       30.03F                  
MINERAL POINT  PTSUNNY   72  61  68 SE10      30.04F                  
MADISON        PTSUNNY   73  55  53 SE13      30.05F                  
MIDDLETON      FAIR      73  53  50 S8        30.06F                  
WATERTOWN      PTSUNNY   74  57  56 SE10      30.06F                  
MONROE         FAIR      72  54  54 SE6       30.05F                  
JANESVILLE     PTSUNNY   75  54  46 SE10      30.05F                  
$$
 
WIZ051-052-058>065-066-070>072-252100-
SOUTHEAST WISCONSIN
  
CITY           SKY/WX    TMP DP  RH WIND       PRES   REMARKS
MILWAUKEE      PTSUNNY   73  58  59 SE14      30.09F                  
WAUKESHA       PTSUNNY   72  54  53 E12       30.09F                  
MILWAUKEE/TIMM MOSUNNY   73  52  46 SE10      30.10F                  
RACINE         FAIR      74  58  57 SE14      30.09F                  
KENOSHA        FAIR      74  57  55 E15       30.08F                  
FOND DU LAC    FAIR      75  56  51 SE14G21   30.09F                  
SHEBOYGAN      FAIR      71  58  63 SE8G17    30.11F                  
WEST BEND      FAIR      72  55  56 SE13      30.09F                  
JUNEAU         PTSUNNY   71  58  63 E9        30.09S                  
$$

LSZ147-162-252100-
LAKE SUPERIOR
  
STATION/POSITION TIME  TEMP    WIND        PRES    WAVE
                       AIR SEA DIR/SP/G            HT/PER
                 (UTC) (F)     (DEG/KT/KT) (MB)    (FT/S)
W MID LAKE BUOY  1950   66 65   60/  6/  6 1017.4F   2/ 4
DEVILS ISLAND    2000   72     160/ 10/ 13 1016.8F
SAXON HARBOR     1940   75     160/  7/ 14 1016.6F
$$
 
LMZ867-665-643>646-252100-
LAKE MICHIGAN
  
STATION/POSITION TIME  TEMP    WIND        PRES    WAVE
                       AIR SEA DIR/SP/G            HT/PER
                 (UTC) (F)     (DEG/KT/KT) (MB)    (FT/S)
S GREEN BAY BUOY 1930   75 70  140/ 14/ 16 1020.2F
N MID LAKE BUOY  1950   68 70   60/  4/  6 1021.2F   1/ 5
NORTHPORT PIER   1940   68     110/  5/  6 1020.7F
KEWAUNEE LAKESHO 1930   70     140/  7/ 12 1019.9F
SHEBOYGAN LAKESH 2000   68     140/ 12/ 13 1019.7F
PORT WASHINGTON  1940   70     130/ 12/ 14 1020.3F
ATWATER BUOY     1930   69 69  130/ 12/ 16 1019.5F   3/ 5
S MID LAKE BUOY  1950   70 72  100/ 10/ 14 1018.9F   2/ 4
KENOSHA   LAKESH 2000   72     110/ 14/ 15 1017.9
$$

TC  - TEMPERATURE IN CELSIUS
VSB - VISIBILITY IN STATUTE MILES
WCI - WIND CHILL INDEX
HX  - HEAT INDEX